Location: Longueuil
(45.5369°N, 73.5107°W)
Time: 16:49:02
(UTC-05:00)

ISS - Pass Details

Date: 03 November 2024
Orbit: 407 x 418 km, 51.6° (Epoch: 10 November)

Event Time Altitude Azimuth Distance (km) Brightness Sun altitude
Exits shadow 03:55:01 17° 94° (E) 1,119 -0.9 -28.7°
Drops below altitude 10° 03:55:55 10° 99° (E) 1,467 -0.1 -28.6°
Sets 03:58:02 0° 105° (ESE) 2,325 1.1 -28.2°
